Weather History for Ogden, UT

Change the Weather History Date:

Wednesday, January 9, 2013

  Actual Average Record
Temperature  
Mean Temperature 26 °F -  
Max Temperature 34 °F 33 °F 56 °F (1953)
Min Temperature 19 °F 17 °F -14 °F (1937)
Degree Days  
Heating Degree Days 38    
Moisture  
Dew Point 20 °F    
Average Humidity 83    
Maximum Humidity 96    
Minimum Humidity 64    
Precipitation  
Precipitation 0.00 in - - ()
Sea Level Pressure  
Sea Level Pressure 30.24 in    
Wind  
Wind Speed 3 mph (NNE)    
Max Wind Speed 8 mph    
Max Gust Speed -    
Visibility 2 miles    
Events Fog    
Averages and records for this station are not official NWS values.
T = Trace of Precipitation, MM = Missing Value Source: NWS Daily Summary

Daily Weather History Graph

Daily Weather History Graph

Search for Another Location

Airport:

Trip Planner

Search our weather history database for the weather conditions in past years. The results will help you decide how hot, cold, wet, or windy it might be!

Date:

Astronomy

Jan. 09, 2013 Rise Set
Actual Time 7:53 AM MST 5:17 PM MST
Civil Twilight 7:22 AM MST 5:48 PM MST
Nautical Twilight 6:48 AM MST 6:22 PM MST
Astronomical Twilight 6:14 AM MST 6:56 PM MST
Moon 5:36 AM MST (1/9) 3:23 PM MST (1/9)
Length of Visible Light 10h 26m
Length of Day
9h 24m
Waning Crescent, 6% of the Moon is Illuminated
Jan 9
Waning Crescent
Jan 11
New
Jan 18
First Quarter
Jan 26
Full
Feb 3
Last Quarter

Hourly Weather History & Observations

Time (MST) Temp. Windchill Dew Point Humidity Pressure Visibility Wind Dir Wind Speed Gust Speed Precip Events Conditions
12:53 AM 27.0 °F 21.6 °F 21.9 °F 81% 30.45 in 3.0 mi NW 4.6 mph - N/A   Haze
1:53 AM 26.1 °F 21.9 °F 21.0 °F 81% 30.44 in 3.0 mi Variable 3.5 mph - N/A   Haze
2:37 AM 24.8 °F - 21.2 °F 86% 30.38 in 2.5 mi Calm Calm - N/A   Overcast
2:53 AM 26.1 °F 19.4 °F 21.0 °F 81% 30.45 in 3.0 mi NW 5.8 mph - N/A   Haze
3:20 AM 24.8 °F - 21.2 °F 86% 30.38 in 2.5 mi Calm Calm - N/A   Overcast
3:53 AM 21.9 °F - 19.0 °F 89% 30.45 in 2.5 mi Calm Calm - N/A   Mostly Cloudy
4:43 AM 24.8 °F 20.5 °F 19.4 °F 80% 30.33 in 3.0 mi WSW 3.5 mph - N/A   Clear
4:53 AM 24.1 °F 17.0 °F 19.0 °F 81% 30.41 in 3.0 mi SSW 5.8 mph - N/A   Haze
5:34 AM 19.4 °F - 17.6 °F 93% 30.30 in 2.5 mi Calm Calm - N/A   Clear
6:04 AM 21.2 °F - 19.4 °F 93% 30.29 in 1.8 mi Calm Calm - N/A   Clear
6:22 AM 21.2 °F - 19.4 °F 93% 30.29 in 2.0 mi Calm Calm - N/A   Clear
6:43 AM 19.4 °F 14.3 °F 15.8 °F 86% 30.28 in 1.5 mi NE 3.5 mph - N/A   Clear
6:53 AM 19.0 °F - 18.0 °F 96% 30.37 in 1.0 mi Calm Calm - N/A   Clear
7:22 AM 19.4 °F - 17.6 °F 93% 30.29 in 0.5 mi Calm Calm - N/A Fog Light Freezing Fog
7:35 AM 19.4 °F - 17.6 °F 93% 30.28 in 1.0 mi Calm Calm - N/A   Mist
7:45 AM 19.4 °F - 17.6 °F 93% 30.28 in 0.5 mi Calm Calm - N/A Fog Light Freezing Fog
7:51 AM 19.4 °F - 17.6 °F 93% 30.29 in 0.2 mi Calm Calm - N/A Fog Light Freezing Fog
7:52 AM 19.9 °F - 19.0 °F 96% 30.38 in 0.2 mi Calm Calm - N/A Fog Light Freezing Fog
8:00 AM 19.4 °F - 17.6 °F 93% 30.29 in 0.2 mi Calm Calm - N/A Fog Light Freezing Fog
8:31 AM 19.4 °F 12.8 °F 15.8 °F 86% 30.29 in 1.0 mi East 4.6 mph - N/A   Mist
8:48 AM 21.2 °F 13.6 °F 17.6 °F 86% 30.28 in 1.2 mi East 5.8 mph - N/A   Partly Cloudy
8:53 AM 21.9 °F 14.5 °F 19.0 °F 89% 30.36 in 1.2 mi East 5.8 mph - N/A   Clear
9:53 AM 26.1 °F 20.5 °F 24.1 °F 92% 30.33 in 3.0 mi SW 4.6 mph - N/A   Clear
10:53 AM 32.0 °F 25.6 °F 21.9 °F 66% 30.29 in 5.0 mi SSE 6.9 mph - N/A   Haze
11:53 AM 34.0 °F 27.2 °F 23.0 °F 64% 30.22 in 5.0 mi SSW 8.1 mph - N/A   Haze
12:53 PM 33.1 °F - 23.0 °F 66% 30.16 in 2.5 mi Calm Calm - N/A   Haze
1:02 PM 33.8 °F - 24.8 °F 70% 30.11 in 4.0 mi Calm Calm - N/A   Haze
1:53 PM 32.0 °F 27.5 °F 23.0 °F 69% 30.14 in 3.0 mi North 4.6 mph - N/A   Haze
2:53 PM 30.9 °F - 23.0 °F 72% 30.11 in 2.5 mi Calm Calm - N/A   Haze
3:53 PM 27.0 °F 19.5 °F 21.0 °F 78% 30.13 in 2.0 mi NNW 6.9 mph - N/A   Haze
4:53 PM 27.0 °F - 21.0 °F 78% 30.09 in 2.0 mi Calm Calm - N/A   Haze
5:36 PM 26.6 °F - 21.2 °F 80% 30.00 in 3.0 mi Calm Calm - N/A   Haze
5:53 PM 27.0 °F - 21.0 °F 78% 30.07 in 3.0 mi Calm Calm - N/A   Haze
6:53 PM 26.1 °F - 21.0 °F 81% 30.03 in 3.0 mi Calm Calm - N/A   Haze
7:53 PM 25.0 °F 19.3 °F 19.9 °F 81% 30.00 in 3.0 mi NW 4.6 mph - N/A   Haze
8:53 PM 25.0 °F - 21.0 °F 85% 29.96 in 3.0 mi Calm Calm - N/A   Clear
9:53 PM 28.0 °F - 21.9 °F 78% 29.91 in 3.0 mi Calm Calm - N/A   Haze
11:53 PM 30.0 °F 22.4 °F 23.0 °F 75% 29.83 in 4.0 mi ESE 8.1 mph - N/A   Haze